TimeEDT,TemperatureF,Dew PointF,Humidity,Sea Level PressureIn,VisibilityMPH,Wind Direction,Wind SpeedMPH,Gust SpeedMPH,PrecipitationIn,Events,Conditions,WindDirDegrees,DateUTC
12:53 AM,68.0,63.0,84,30.14,10.0,ENE,5.8,-,N/A,,Clear,70,2013-09-19 04:53:00
1:53 AM,66.9,63.0,87,30.13,10.0,ENE,5.8,-,N/A,,Clear,60,2013-09-19 05:53:00
2:53 AM,68.0,62.1,81,30.12,10.0,Calm,Calm,-,N/A,,Clear,0,2013-09-19 06:53:00
3:53 AM,68.0,63.0,84,30.11,10.0,NNE,4.6,-,N/A,,Clear,30,2013-09-19 07:53:00
4:53 AM,66.0,62.1,87,30.11,10.0,NE,5.8,-,N/A,,Clear,50,2013-09-19 08:53:00
5:53 AM,66.0,61.0,84,30.12,10.0,NE,6.9,-,N/A,,Clear,50,2013-09-19 09:53:00
6:53 AM,64.9,61.0,87,30.13,10.0,ENE,5.8,-,N/A,,Clear,70,2013-09-19 10:53:00
7:53 AM,66.0,61.0,84,30.14,10.0,ENE,5.8,-,N/A,,Clear,60,2013-09-19 11:53:00
8:53 AM,70.0,60.1,71,30.15,10.0,ENE,6.9,-,N/A,,Clear,70,2013-09-19 12:53:00
9:53 AM,75.0,62.1,64,30.16,10.0,ENE,6.9,-,N/A,,Clear,70,2013-09-19 13:53:00
10:53 AM,79.0,63.0,58,30.17,10.0,NE,6.9,-,N/A,,Clear,40,2013-09-19 14:53:00
11:53 AM,82.0,64.0,54,30.16,10.0,ENE,6.9,-,N/A,,Clear,70,2013-09-19 15:53:00
12:53 PM,84.0,63.0,49,30.15,10.0,ESE,9.2,-,N/A,,Scattered Clouds,120,2013-09-19 16:53:00
1:53 PM,86.0,61.0,43,30.13,10.0,Variable,4.6,-,N/A,,Scattered Clouds,0,2013-09-19 17:53:00
2:53 PM,87.1,61.0,41,30.11,10.0,Variable,3.5,-,N/A,,Scattered Clouds,0,2013-09-19 18:53:00
3:53 PM,88.0,57.9,36,30.08,10.0,ENE,9.2,-,N/A,,Scattered Clouds,60,2013-09-19 19:53:00
4:53 PM,87.1,55.9,35,30.08,10.0,East,10.4,-,N/A,,Scattered Clouds,80,2013-09-19 20:53:00
5:53 PM,86.0,57.0,37,30.08,10.0,Variable,3.5,-,N/A,,Clear,0,2013-09-19 21:53:00
6:53 PM,84.0,59.0,43,30.07,10.0,ENE,6.9,-,N/A,,Clear,70,2013-09-19 22:53:00
7:53 PM,78.1,61.0,56,30.07,10.0,ENE,4.6,-,N/A,,Clear,60,2013-09-19 23:53:00
8:53 PM,75.9,62.1,62,30.08,10.0,Calm,Calm,-,N/A,,Clear,0,2013-09-20 00:53:00
9:53 PM,73.9,63.0,68,30.09,10.0,ENE,3.5,-,N/A,,Clear,60,2013-09-20 01:53:00
10:53 PM,73.0,63.0,71,30.09,10.0,ENE,3.5,-,N/A,,Clear,70,2013-09-20 02:53:00
11:53 PM,71.1,63.0,75,30.09,10.0,East,3.5,-,N/A,,Clear,100,2013-09-20 03:53:00